| time (UTC) | temp C | wind direction | speed KPH | gust KPH | rain 1hr cm | rain 24hr cm | rain mn cm | humidity % | barometer mb |
| 20260505184545 | 25 | 210 | 16.1 | 33.8 | 0.03 | 0.08 | 0.08 | 39 | 1001.8 |
| 20260505183041 | 25 | 198 | 8.0 | 22.5 | 0.03 | 0.08 | 0.08 | 45 | 1002.0 |
| 20260505181539 | 23 | 219 | 11.3 | 17.7 | 0.03 | 0.08 | 0.08 | 53 | 1002.4 |
| 20260505180045 | 23 | 227 | 11.3 | 33.8 | 0.03 | 0.08 | 0.08 | 51 | 1003.0 |
| 20260505174535 | 24 | 248 | 20.9 | 37.0 | 0.00 | 0.05 | 0.05 | 43 | 1003.0 |
| 20260505173034 | 24 | 247 | 20.9 | 30.6 | 0.00 | 0.05 | 0.05 | 43 | 1003.2 |
| 20260505171531 | 24 | 246 | 16.1 | 27.4 | 0.00 | 0.05 | 0.05 | 43 | 1003.3 |
| 20260505170032 | 24 | 238 | 14.5 | 37.0 | 0.00 | 0.05 | 0.05 | 43 | 1002.8 |
| 20260505164529 | 24 | 234 | 14.5 | 38.6 | 0.00 | 0.05 | 0.05 | 43 | 1002.7 |
| 20260505163028 | 24 | 206 | 14.5 | 30.6 | 0.00 | 0.05 | 0.05 | 43 | 1002.9 |
| 20260505161528 | 24 | 183 | 20.9 | 33.8 | 0.00 | 0.05 | 0.05 | 41 | 1003.3 |
| 20260505153021 | 24 | 213 | 17.7 | 40.2 | 0.00 | 0.05 | 0.05 | 42 | 1003.4 |
| 20260505151520 | 24 | 207 | 11.3 | 38.6 | 0.00 | 0.05 | 0.05 | 44 | 1003.5 |
| 20260505124555 | 18 | 232 | 8.0 | 19.3 | 0.00 | 0.05 | 0.05 | 61 | 1004.8 |
| 20260505123057 | 17 | 209 | 3.2 | 14.5 | 0.00 | 0.05 | 0.05 | 66 | 1004.7 |
| 20260505121618 | 16 | 214 | 4.8 | 11.3 | 0.05 | 0.05 | 0.05 | 69 | 1004.6 |
| 20260505120047 | 16 | 212 | 6.4 | 16.1 | 0.05 | 0.05 | 0.05 | 70 | 1004.6 |
| 20260505114547 | 16 | 221 | 8.0 | 19.3 | 0.05 | 0.05 | 0.05 | 69 | 1004.3 |
| 20260505113048 | 17 | 143 | 11.3 | 19.3 | 0.05 | 0.05 | 0.05 | 65 | 1004.1 |
| 20260505111547 | 17 | 232 | 17.7 | 35.4 | 0.00 | 0.00 | 0.00 | 60 | 1005.2 |
| 20260505101542 | 17 | 204 | 4.8 | 20.9 | 0.00 | 0.00 | 0.00 | 57 | 1004.3 |
| 20260505100042 | 16 | 165 | 4.8 | 12.9 | 0.00 | 0.00 | 0.00 | 61 | 1004.1 |
| 20260505094533 | 15 | 235 | 3.2 | 11.3 | 0.00 | 0.00 | 0.00 | 61 | 1003.9 |
| 20260505093031 | 16 | 208 | 1.6 | 6.4 | 0.00 | 0.00 | 0.00 | 59 | 1003.9 |
| 20260505091534 | 16 | 163 | 1.6 | 8.0 | 0.00 | 0.00 | 0.00 | 57 | 1003.8 |
| 20260505090026 | 16 | 161 | 1.6 | 8.0 | 0.00 | 0.00 | 0.00 | 56 | 1003.6 |
| 20260505084526 | 16 | 119 | 0.0 | 4.8 | 0.00 | 0.00 | 0.00 | 56 | 1003.7 |
| 20260505083034 | 16 | 119 | 0.0 | 4.8 | 0.00 | 0.00 | 0.00 | 55 | 1003.6 |
| 20260505081523 | 17 | 119 | 0.0 | 4.8 | 0.00 | 0.00 | 0.00 | 54 | 1003.7 |
| 20260505080039 | 17 | 119 | 0.0 | 4.8 | 0.00 | 0.00 | 0.00 | 53 | 1003.8 |
| 20260505074519 | 17 | 119 | 1.6 | 9.7 | 0.00 | 0.00 | 0.00 | 52 | 1003.9 |
| 20260505073019 | 17 | 177 | 0.0 | 6.4 | 0.00 | 0.00 | 0.00 | 52 | 1003.8 |
| 20260505071523 | 17 | 146 | 1.6 | 6.4 | 0.00 | 0.00 | 0.00 | 51 | 1003.8 |
| 20260505070015 | 18 | 218 | 3.2 | 20.9 | 0.00 | 0.00 | 0.00 | 50 | 1003.9 |
| 20260505064512 | 18 | 215 | 8.0 | 19.3 | 0.00 | 0.00 | 0.00 | 49 | 1003.9 |
| 20260505063014 | 18 | 223 | 11.3 | 19.3 | 0.00 | 0.00 | 0.00 | 48 | 1003.9 |
| 20260505061511 | 18 | 189 | 12.9 | 25.7 | 0.00 | 0.00 | 0.00 | 48 | 1003.8 |
| 20260505060009 | 18 | 200 | 12.9 | 20.9 | 0.00 | 0.00 | 0.00 | 48 | 1004.0 |
| 20260505054506 | 18 | 204 | 11.3 | 20.9 | 0.00 | 0.00 | 0.00 | 48 | 1004.0 |
| 20260505053006 | 18 | 186 | 11.3 | 16.1 | 0.00 | 0.00 | 0.00 | 48 | 1004.1 |
| 20260505051502 | 18 | 176 | 9.7 | 24.1 | 0.00 | 0.00 | 0.00 | 47 | 1004.1 |
| 20260505041604 | 18 | 163 | 4.8 | 17.7 | 0.00 | 0.00 | 0.00 | 46 | 1004.0 |
| 20260505040050 | 18 | 198 | 9.7 | 17.7 | 0.00 | 0.00 | 0.00 | 46 | 1004.0 |
| 20260505034549 | 18 | 201 | 9.7 | 19.3 | 0.00 | 0.00 | 0.00 | 46 | 1003.8 |
| 20260505033049 | 18 | 229 | 8.0 | 16.1 | 0.00 | 0.00 | 0.00 | 45 | 1003.9 |
| 20260505031546 | 18 | 203 | 9.7 | 19.3 | 0.00 | 0.00 | 0.00 | 45 | 1004.0 |
| 20260505030055 | 18 | 173 | 9.7 | 19.3 | 0.00 | 0.00 | 0.00 | 45 | 1004.0 |
| 20260505024542 | 19 | 204 | 11.3 | 22.5 | 0.00 | 0.00 | 0.00 | 43 | 1004.1 |
| 20260505023041 | 19 | 193 | 17.7 | 27.4 | 0.00 | 0.00 | 0.00 | 43 | 1004.2 |
| 20260505021550 | 19 | 174 | 11.3 | 25.7 | 0.00 | 0.00 | 0.00 | 43 | 1004.3 |
| 20260505020051 | 19 | 182 | 9.7 | 19.3 | 0.00 | 0.00 | 0.00 | 42 | 1004.2 |
| 20260505014538 | 19 | 175 | 6.4 | 14.5 | 0.00 | 0.00 | 0.00 | 41 | 1004.1 |
| 20260505013040 | 20 | 191 | 8.0 | 19.3 | 0.00 | 0.00 | 0.00 | 40 | 1004.0 |
| 20260505011537 | 20 | 196 | 11.3 | 19.3 | 0.00 | 0.00 | 0.00 | 40 | 1003.9 |
| 20260505010054 | 20 | 198 | 8.0 | 22.5 | 0.00 | 0.00 | 0.00 | 39 | 1003.8 |
| 20260505004534 | 20 | 213 | 11.3 | 27.4 | 0.00 | 0.00 | 0.00 | 39 | 1003.7 |
| 20260505003040 | 20 | 202 | 3.2 | 16.1 | 0.00 | 0.00 | 0.00 | 38 | 1003.6 |
| 20260505001529 | 21 | 194 | 11.3 | 22.5 | 0.00 | 0.00 | 0.00 | 37 | 1003.5 |
| 20260505000031 | 21 | 224 | 9.7 | 22.5 | 0.00 | 0.00 | 0.00 | 37 | 1003.3 |
| 20260504234529 | 21 | 198 | 11.3 | 24.1 | 0.00 | 0.00 | 0.00 | 36 | 1003.3 |
| 20260504233029 | 21 | 166 | 9.7 | 24.1 | 0.00 | 0.00 | 0.00 | 36 | 1003.2 |
| 20260504231529 | 22 | 169 | 12.9 | 29.0 | 0.00 | 0.00 | 0.00 | 35 | 1003.2 |
| 20260504230024 | 22 | 193 | 11.3 | 19.3 | 0.00 | 0.00 | 0.00 | 34 | 1002.9 |
| 20260504224525 | 22 | 180 | 9.7 | 19.3 | 0.00 | 0.00 | 0.00 | 33 | 1003.0 |
| 20260504223023 | 22 | 204 | 11.3 | 20.9 | 0.00 | 0.00 | 0.00 | 33 | 1003.1 |
| 20260504221522 | 22 | 145 | 12.9 | 24.1 | 0.00 | 0.00 | 0.00 | 33 | 1002.9 |
| 20260504220017 | 22 | 219 | 12.9 | 27.4 | 0.00 | 0.00 | 0.00 | 32 | 1003.0 |
| 20260504214524 | 23 | 181 | 11.3 | 32.2 | 0.00 | 0.00 | 0.00 | 32 | 1003.0 |
| 20260504213012 | 23 | 257 | 16.1 | 30.6 | 0.00 | 0.00 | 0.00 | 29 | 1003.0 |
| 20260504211509 | 23 | 180 | 8.0 | 22.5 | 0.00 | 0.00 | 0.00 | 30 | 1003.1 |
| 20260504210011 | 23 | 254 | 19.3 | 35.4 | 0.00 | 0.00 | 0.00 | 29 | 1003.2 |
| 20260504204510 | 22 | 211 | 11.3 | 25.7 | 0.00 | 0.00 | 0.00 | 33 | 1003.6 |
| 20260504203004 | 23 | 200 | 14.5 | 29.0 | 0.00 | 0.00 | 0.00 | 31 | 1003.8 |
| 20260504201505 | 22 | 289 | 17.7 | 37.0 | 0.00 | 0.00 | 0.00 | 30 | 1004.0 |
| 20260504200002 | 22 | 220 | 22.5 | 35.4 | 0.00 | 0.00 | 0.00 | 31 | 1004.4 |
| 20260504194559 | 22 | 242 | 14.5 | 40.2 | 0.00 | 0.00 | 0.00 | 32 | 1004.5 |
| 20260504193057 | 22 | 203 | 17.7 | 32.2 | 0.00 | 0.00 | 0.00 | 32 | 1004.5 |
| 20260504191608 | 22 | 227 | 14.5 | 32.2 | 0.00 | 0.00 | 0.00 | 33 | 1004.8 |
| 20260504190054 | 22 | 222 | 19.3 | 30.6 | 0.00 | 0.00 | 0.00 | 33 | 1004.9 |